[ hide orbit diagram ]
For accurate long-term ephemerides, please instead use our Horizons system.This orbit viewer was implemented using two-body methods, and hence should not be used for determining accurate long-term trajectories (over several years or decades) or planetary encounter circumstances.
Orbital Elements at Epoch 2459200.5 (2020-Dec-17.0) TDB
Reference: JPL 14 (heliocentric ecliptic J2000)
Element | Value | Uncertainty (1-sigma) | Units |
e | .1742534921315313 | 3.697e-08 | |
a | 2.363954660768249 | 1.3635e-08 | au |
q | 1.952027305888772 | 8.9626e-08 | au |
i | 1.480552317402413 | 6.5751e-06 | deg |
node | 15.2974695928417 | 0.00016386 | deg |
peri | 268.3880660476481 | 0.00016506 | deg |
M | 33.96420061749543 | 2.1616e-05 | deg |
tp | 2459075.250489350068 (2020-Aug-13.75048935) | 7.9204e-05 | TDB |
period | 1327.569117311986 3.63 | 1.1486e-05 3.145e-08 | d yr |
n | .2711723218817526 | 2.3462e-09 | deg/d |
Q | 2.775882015647726 | 1.6011e-08 | au |
|
| | Orbit Determination Parameters
Additional Information
|
[ show covariance matrix ]
Physical Parameter Table
Parameter |
Symbol |
Value |
Units |
Sigma |
Reference |
Notes |
absolute magnitude |
H |
17.5 |
|
n/a |
MPO469438 |
|
|
136683 (1995 SG34) Discovered 1995-Sep-22 by Spacewatch at Kitt Peak |
Reference: 20061205/Numbers.arc | Last Updated: 2006-12-13 |
|
|